Flag for Poland Weather past 2 weeks in Zielona Góra, Poland

Now
76 °F

Overcast.


Feels Like: 78 °F
Forecast: 63 / 87 °F
Wind: 2 mph from Southwest

Location: Zielona Gora

Current Time: Aug 2, 2015 at 1:03:07 PM

Latest Report: Aug 2, 2015 at 12:00 PM


Visibility: 22 mi

Pressure: 30.09 "Hg

Humidity: 45%

Dew point: 53 °F

Location of Zielona GóraLocation

Historic Weather in Zielona Góra — Graph

°F

Zielona Góra temperature yesterday

Maximum temperature yesterday: 75 °F (at 5:00 PM)
Minimum temperature yesterday: 53 °F (at 4:00 AM)
Average temperature yesterday: 63 °F

Past Weeks' High & Low Weather Summary

 TemperatureHumidityPressure
High86 °F (Jul 22, 4:00 PM)98% (Jul 23, 2:00 AM)30.12 "Hg (Jul 23, 2:00 AM)
Low49 °F (Jul 30, 3:00 AM)32% (Aug 1, 5:00 PM)29.59 "Hg (Jul 27, 4:00 PM)
Average66 °F64%29.87 "Hg
* Reported Jul 18 11:00 AM — Aug 2 11:00 AM, Zielona Góra, Weather by CustomWeather, © 2015

Note: Actual official high and low records may vary slightly from our data, if they occured in-between our weather recording intervals... More about our weather records

Advertising

Zielona Góra weather history for previous 24 hours

 ConditionsComfort  
Time TempWeatherWind HumidityBarometerVisibility
11:00 AM
Sun, Aug 2
73 °FOvercast.2 mph53%30.09 "Hg19 mi
10:00 AM70 °FOvercast.1 mph56%30.08 "Hg19 mi
9:00 AM66 °FOvercast.2 mph59%30.07 "Hg19 mi
8:00 AM63 °FOvercast.2 mph63%30.06 "Hg19 mi
7:00 AM62 °FOvercast.3 mph60%30.06 "Hg19 mi
6:00 AM62 °FPartly sunny.3 mph58%30.06 "Hg19 mi
5:00 AM62 °FPassing clouds.3 mph57%30.04 "Hg19 mi
4:00 AM62 °FPassing clouds.3 mph56%30.04 "Hg19 mi
3:00 AM63 °FPassing clouds.3 mph54%30.04 "Hg19 mi
2:00 AM63 °FPassing clouds.3 mph53%30.04 "Hg19 mi
1:00 AM64 °FPassing clouds.2 mph50%30.04 "Hg19 mi
12:00 AM66 °FPassing clouds.2 mph48%30.05 "Hg19 mi
7:00 PM
Sat, Aug 1
75 °FPassing clouds.3 mph35%30.01 "Hg25 mi
6:00 PM75 °FScattered clouds.3 mph33%30.01 "Hg25 mi
5:00 PM75 °FScattered clouds.3 mph32%30.01 "Hg22 mi
4:00 PM75 °FScattered clouds.3 mph36%30.02 "Hg25 mi
3:00 PM74 °FScattered clouds.2 mph39%30.04 "Hg25 mi
2:00 PM71 °FScattered clouds.3 mph42%30.06 "Hg25 mi
1:00 PM69 °FPartly sunny.3 mph45%30.07 "Hg22 mi
Weather by CustomWeather, © 2015

See weather overviewHow to use our weather pages